STARLINK-5696, 55484

Orbit data source: Space-Track

STARLINK-5696, 55484 is a payload satellite owned by SpaceX/Seattle (US) in LEO that was launched on Thu, 02 Feb 2023 UTC via an FALCON 9 launch vehicle from the Air Force Eastern Test Range (AFETR). Payload-class satellites include a variety of spacecraft equipped with specific instruments for various scientific and technological missions. These include communications satellites like Starlink; space stations such as the ISS; scientific satellites like the Hubble; Earth observation satellites from companies like Planet Labs, Umbra, and HawkEye 360; GPS; miniature CubeSats for education and research; and military/defense satellites.

Loading next visibility...
Identifier
55484, 2023-015AM
Orbit
LEO
Last TLE update
19 hours ago
Origin
Manufacturer
SpaceX/Seattle
Mission
Operational Commercial Communications
Bus & Motor
STARLINK, Unknown motor
Mass
305 kg wet, ~290 kg dry
Launch date (UTC)
2023-02-02 (2 years ago)
Launch vehicle
FALCON 9
Launch site
Air Force Eastern Test Range (AFETR)
Object type
Payload
Rocket body
Debris
Shape & HBR
Box + 1 Pan, 8.86 m
Radar Cross Section
13.562 m², Large (>1 m²)

Expand to show TLE details & history

TLE from 19 hours ago
0 STARLINK-5696
1 55484U 23015AM  25189.50757133 -.00000098  00000-0  77939-5 0  9991
2 55484  43.0027 225.7143 0001182 276.7745  83.2963 15.02536107133871
Epoch: 2025-07-08T12:10Z
TLE epoch observation values (Epoch: 2025-07-08T12:10:54.162Z)
Latitude
-0.00002°
Longitude
116.28704°
Altitude
558.762 km
Speed
7.584 km/s
True Right ascension
15h 02m 51s
True Declination
0° 00' 00"
Sunlit
Object was in full shadow at epoch
Visualization orbit readout
Latitude
22.2139°
Longitude
137.73364°
Altitude
558.937 km
Speed
7.586 km/s
Apparent Right ascension
13h 11m 41s
Apparent Declination
-17° 05' 50"
Sunlit
Object is in full shadow
Visualization observer readout
Local Sidereal Time
19:38:02
Azimuth
260.72° W
Elevation
-15.826°
Doppler factor
1
Orbital elements
Apogee altitude
561.823 km
Perigee altitude
560.182 km
Semi-major axis
6,939.14 km
Eccentricity
0.00012
Inclination
43.0027°
RAAN
225.7143°
Arg. of periapsis
276.7745°
True anomaly
Unknown
Mean anomaly
83.2963°
Eccentric anomaly
Unknown
Mean motion
3.75478 °/min
Orbital period
95.88 mins
BSTAR
0.0000077939
Loading maneuver chart data...
Loading SW <> Apogee altitude chart data...
Loading historical data...
Loading historical data...
Loading historical data...
Loading historical data...
Loading historical data...
Loading historical data...
Loading historical data...

STARLINK-5696 Visibility forecast

Observer location: undefined°, undefined°

Span
Click to sort rows by Start time (UTC) header in descending order
Start Az.
Max El. time (UTC)
Max El. Az.
Max El.
End time (UTC)
End Az.
7 mins2025-07-09 07:37:32.144Z270.772° WNW2025-07-09 07:40:32.144Z331.35° NNW41.443°2025-07-09 07:44:32.144Z71.366° E
6 mins2025-07-09 09:19:32.144Z295.873° NW2025-07-09 09:21:32.144Z353.84° N41.013°2025-07-09 09:25:32.144Z89.025° E
6 mins2025-07-09 10:59:32.144Z279.067° WNW2025-07-09 11:02:32.144Z198.218° SSW39.513°2025-07-09 11:05:32.144Z131.58° SE
4 mins2025-07-10 04:15:32.144Z164.09° S2025-07-10 04:16:32.144Z147.443° SSE15.9°2025-07-10 04:19:32.144Z101.613° ESE
6 mins2025-07-10 05:54:32.144Z234.467° WSW2025-07-10 05:57:32.144Z113.987° SE41.063°2025-07-10 06:00:32.144Z75.608° E
|